GEFSNE_500_meanwind_186.txt.gz
Wind_Speed
18 19 20 20 21 21 21 21 21 20 20 20 20 21 21 21 21 21 20 20 20 20 20 20 20 20 21 21 21 21 21 21 21 22 22 22 22 22
19 19 20 21 22 22 23 23 23 23 22 23 23 23 23 23 23 22 22 22 22 21 22 22 22 22 23 23 23 23 23 23 23 24 24 24 25 25
17 18 19 20 21 22 23 24 25 24 24 24 25 25 25 25 24 24 24 24 24 24 24 24 24 25 25 25 25 25 25 25 25 26 26 26 27 27
17 18 19 19 20 21 22 23 24 24 25 25 25 25 25 25 25 26 25 26 26 26 26 26 25 25 26 26 26 27 27 27 27 28 28 28 29 30
17 18 18 19 19 20 21 22 24 25 25 25 25 25 26 26 27 27 27 27 27 27 27 26 26 27 27 28 29 29 30 30 30 31 31 31 32 33
18 18 18 19 19 20 20 22 23 24 24 25 24 25 26 27 27 27 28 28 28 28 29 29 29 29 30 30 31 32 32 33 34 34 34 35 35 35
20 19 19 20 21 21 21 22 23 23 24 24 25 25 26 26 27 28 29 29 29 30 31 32 32 32 32 33 34 34 35 36 37 37 37 38 38 38
20 21 21 21 22 21 22 23 24 24 25 25 26 27 27 28 29 29 30 31 32 33 33 34 35 35 35 35 36 37 37 38 39 40 41 41 42 42
21 22 24 24 23 24 24 25 25 25 26 27 28 28 29 30 30 31 32 32 33 34 35 35 37 38 38 39 39 39 40 41 42 42 43 44 44 45
22 23 24 24 25 25 25 25 26 26 27 28 29 29 30 31 32 34 34 34 35 36 36 37 38 39 39 40 40 41 42 42 43 44 45 45 45 45
22 23 23 24 25 25 26 27 27 28 28 29 30 31 31 32 33 34 35 36 37 38 39 39 39 40 41 42 43 43 44 45 45 45 45 45 45 46
23 24 25 25 26 27 27 28 28 29 30 31 32 32 32 33 34 35 36 37 38 39 40 41 41 42 43 44 44 44 45 45 45 45 45 45 46 46
24 25 26 27 28 28 29 29 30 30 30 31 32 32 33 33 34 35 37 38 39 39 40 42 43 44 45 44 44 45 45 45 45 45 45 45 46 46
26 26 27 29 29 29 30 31 30 30 31 31 32 32 33 34 35 36 37 38 39 40 40 41 42 43 43 44 44 45 45 46 46 46 46 46 46 46
27 28 28 29 31 31 32 32 33 33 33 33 34 34 35 36 37 37 38 39 39 40 41 41 42 43 44 44 45 46 46 46 46 46 46 46 47 47
28 28 29 29 31 32 33 33 34 34 35 36 36 37 38 38 38 39 39 40 41 41 42 43 44 45 45 45 46 45 45 45 46 46 46 47 47 47
28 28 29 30 31 33 34 35 35 36 36 37 37 38 39 39 40 40 41 41 42 42 43 44 45 45 46 46 46 46 45 45 46 46 47 47 47 48
28 29 30 32 33 34 35 36 36 37 38 39 39 40 41 41 42 42 43 43 43 43 44 44 45 45 45 45 45 45 45 45 45 46 47 47 47 47
30 31 32 33 34 35 36 37 38 39 39 40 41 42 42 43 43 44 44 45 45 45 45 46 46 45 45 45 45 45 45 45 45 46 46 46 46 46
32 33 34 35 36 37 38 38 39 39 40 40 41 41 42 43 43 44 45 45 46 46 46 46 46 45 45 44 44 44 44 44 44 45 44 44 44 45
33 34 35 36 36 37 37 37 38 38 38 39 39 40 41 42 43 44 44 45 45 45 45 45 44 44 43 43 43 42 42 43 43 43 43 43 43 42
34 34 35 36 36 37 37 37 38 38 39 39 40 41 41 42 43 43 43 43 43 43 43 42 41 41 41 41 41 42 42 42 42 42 42 42 41 40
34 35 35 36 37 38 38 38 39 39 39 40 40 40 41 42 42 42 41 41 41 40 40 39 39 39 39 39 39 40 40 39 39 39 39 39 39 39

GEFSNE_500_meanwind_192.txt.gz
Wind_Speed
15 16 17 18 18 18 19 20 21 22 22 22 23 23 22 22 22 22 21 21 21 21 21 21 21 21 22 21 22 22 22 22 22 22 22 22 23 23
16 16 17 17 18 19 20 20 21 22 22 23 23 23 24 24 24 24 24 24 23 23 23 23 23 23 23 23 24 24 24 24 24 24 24 24 24 25
17 17 17 18 19 19 19 20 20 20 21 22 23 23 23 24 24 25 25 25 24 24 25 25 25 25 26 25 25 26 26 26 26 26 26 26 26 26
18 18 19 19 20 20 19 20 20 20 20 21 22 22 23 25 25 26 26 26 26 26 26 27 27 27 27 27 27 27 27 28 28 27 28 28 29 29
19 19 20 21 21 21 21 21 21 21 22 22 23 24 25 25 25 25 26 27 27 27 28 28 28 29 29 28 28 29 29 30 30 30 30 30 30 30
21 21 21 21 21 21 21 21 22 22 23 23 24 25 25 25 26 25 26 27 28 29 29 29 29 30 30 31 31 31 32 32 32 32 32 32 33 33
21 22 22 22 22 22 22 22 23 23 24 25 26 26 26 26 27 28 28 29 29 29 30 30 31 32 32 32 33 34 34 34 35 35 36 36 36 37
21 21 21 22 23 23 23 24 24 24 25 26 27 28 28 28 28 29 30 30 31 31 33 33 34 34 35 35 35 36 36 36 37 38 38 39 40 41
21 22 22 23 24 24 25 25 26 26 27 28 28 29 29 29 30 31 32 33 33 34 35 35 35 36 37 37 37 37 38 39 40 41 41 42 43 44
23 23 24 24 24 25 26 26 27 28 29 30 30 30 31 31 32 33 33 34 34 35 36 37 37 37 38 38 38 39 40 40 41 43 43 44 44 45
23 24 25 26 26 27 28 28 29 29 30 31 31 32 33 33 34 35 35 36 36 36 37 38 38 38 38 39 39 40 41 42 43 44 44 44 45 46
25 25 26 27 29 30 30 30 30 31 31 32 33 33 35 35 36 36 36 36 36 36 37 38 39 40 39 39 40 41 42 43 43 44 44 45 46 47
26 26 27 29 30 31 31 32 33 33 34 34 34 35 36 37 37 36 36 36 37 37 38 38 38 39 40 40 41 42 43 43 44 45 46 46 47 48
27 29 30 31 31 31 31 31 32 33 34 34 34 35 36 36 37 37 37 37 38 38 38 39 40 40 41 41 42 42 42 43 43 44 44 45 47 47
28 28 29 29 30 30 31 32 33 33 33 35 36 36 37 37 38 39 38 38 39 39 40 40 41 42 42 43 43 43 43 43 43 44 44 45 45 46
28 28 28 29 30 31 32 32 33 34 35 36 36 37 38 39 39 39 39 39 39 40 40 41 42 43 44 44 44 44 44 44 44 44 45 45 45 44
29 30 30 31 33 34 34 35 35 35 36 37 38 38 39 39 40 40 40 40 41 41 42 42 43 44 44 45 45 46 45 45 44 44 44 44 44 44
31 31 32 33 34 34 34 35 35 35 37 38 38 38 39 39 40 40 41 41 41 41 42 42 43 43 44 44 44 44 45 44 44 44 44 44 43 44
32 32 33 34 34 34 35 35 36 36 37 38 38 39 39 40 40 41 41 42 42 42 42 42 43 43 42 42 42 43 43 42 42 42 42 42 42 43
32 32 33 34 34 35 36 37 37 37 38 38 39 39 40 41 41 41 42 42 42 42 42 42 41 41 41 42 41 41 41 41 40 40 40 40 40 40
32 33 34 34 35 36 37 37 37 37 37 38 38 38 39 39 40 40 41 41 41 41 41 40 40 40 40 40 40 40 39 39 39 39 38 38 38 38
33 34 34 35 36 36 37 37 37 37 37 37 38 38 38 38 39 39 39 38 38 38 39 38 38 38 38 37 37 38 37 37 37 37 36 36 36 36
33 34 35 36 36 37 37 37 37 37 37 37 37 37 37 37 37 36 36 36 37 37 37 37 37 36 36 36 36 35 35 35 35 35 35 34 34 34

GEFSNE_500_meanwind_198.txt.gz
Wind_Speed
14 15 15 15 16 16 16 17 17 16 17 18 19 19 19 20 20 20 20 20 21 20 21 21 22 22 21 21 22 22 22 23 23 24 23 24 23 24
15 15 16 17 17 17 18 18 18 18 18 19 19 19 19 19 20 20 20 20 21 22 22 23 23 23 23 24 24 25 25 25 25 25 25 26 26 26
17 17 18 18 18 18 19 19 19 19 19 19 20 20 20 20 20 21 21 21 22 22 22 23 23 24 25 25 25 26 26 27 28 28 28 29 29 29
18 19 19 19 19 19 20 20 20 20 20 21 21 21 21 22 22 22 22 23 22 23 23 24 25 25 26 27 27 28 28 29 29 29 30 31 31 30
19 19 19 20 20 20 20 21 21 22 22 21 21 22 23 23 23 23 24 24 24 23 24 26 27 28 28 28 29 30 31 31 31 31 32 32 32 32
19 20 20 20 21 21 22 22 22 23 23 23 23 24 25 25 25 25 25 26 26 26 26 26 27 28 30 30 30 31 33 33 34 34 34 34 34 34
20 21 22 22 22 22 23 23 24 24 25 25 25 26 26 26 26 27 28 28 28 29 28 29 29 30 31 32 33 33 34 34 35 35 35 35 36 37
22 22 23 23 24 24 25 25 25 25 26 26 27 27 28 29 29 29 30 30 30 30 30 31 32 32 33 33 34 34 35 35 35 36 37 38 38 39
23 24 24 25 25 25 26 26 26 26 26 27 28 29 30 30 30 31 31 32 32 32 33 33 34 34 35 35 35 35 36 36 37 37 38 39 40 41
24 25 25 25 25 25 26 27 27 28 28 29 30 31 32 31 32 32 32 33 33 34 34 34 35 35 36 36 36 36 36 37 38 39 39 40 41 42
25 25 25 26 26 27 28 29 30 30 30 31 32 32 33 32 32 32 33 33 34 34 35 35 36 37 37 37 37 37 38 39 40 40 40 40 40 41
24 25 26 27 28 29 30 30 31 31 32 32 32 33 33 34 35 35 35 35 35 35 36 36 36 37 37 38 39 39 40 41 41 42 41 41 41 42
25 26 27 28 29 30 30 31 31 32 32 32 33 34 35 36 36 36 37 37 37 37 38 38 38 39 39 40 40 41 41 41 41 41 41 42 42 43
27 27 28 29 30 31 32 32 32 32 33 33 34 35 35 37 37 38 38 38 38 38 39 39 40 40 41 40 40 41 42 41 41 41 42 42 42 42
28 29 30 30 31 32 33 34 34 34 34 35 35 35 36 37 38 38 39 39 39 40 40 40 40 41 42 42 41 41 41 41 40 40 41 41 41 42
30 31 32 32 33 34 34 34 34 34 35 35 35 36 37 37 38 39 40 39 40 41 41 41 41 42 42 42 42 42 41 41 41 40 40 40 41 41
32 33 33 34 35 34 34 35 35 35 36 36 37 38 37 38 38 39 39 40 40 40 41 42 42 42 42 42 42 42 42 41 41 41 41 41 41 41
34 35 35 35 35 34 35 35 36 37 37 38 38 38 38 38 38 39 39 40 40 40 41 41 41 42 42 42 42 41 41 40 41 41 41 41 41 41
34 34 35 35 35 35 35 36 36 37 37 37 38 38 38 38 38 38 39 39 39 39 40 40 40 39 39 39 40 40 39 39 39 40 40 41 40 40
33 34 34 34 34 35 36 37 37 37 38 38 38 39 39 40 40 39 39 39 39 39 39 38 38 38 38 38 38 39 39 39 39 39 39 39 39 38
33 33 34 34 35 35 36 37 37 38 38 38 38 39 39 40 40 39 39 38 38 38 37 37 37 37 37 37 37 37 37 38 38 37 37 36 36 36
33 33 34 35 35 35 36 37 38 38 38 39 39 39 39 39 38 38 37 37 36 36 36 36 36 36 36 36 36 35 35 35 35 35 35 35 34 34
33 34 35 35 36 36 37 38 38 38 38 39 39 40 40 39 38 37 37 37 36 36 36 35 35 35 35 35 35 34 34 33 33 32 32 32 32 32

GEFSNE_500_meanwind_204.txt.gz
Wind_Speed
11 11 12 12 13 13 14 14 15 15 16 16 16 17 17 17 18 19 18 19 20 20 21 21 21 21 22 22 23 23 24 24 25 26 26 27 26 27
13 13 13 13 13 13 14 15 16 15 16 16 17 18 18 18 18 20 19 19 20 21 21 22 22 23 24 25 24 25 25 26 27 27 27 28 28 28
13 14 14 14 14 14 15 15 16 16 17 17 18 19 20 19 19 20 21 20 21 22 23 24 24 25 26 26 27 27 27 27 28 28 29 30 30 30
15 14 14 14 14 14 15 16 16 16 17 18 19 20 20 21 21 21 22 24 25 25 25 26 26 27 28 28 29 29 29 29 30 30 31 32 32 33
16 16 15 15 14 15 16 17 17 18 18 18 20 21 22 22 23 23 24 25 25 26 28 28 28 29 30 30 31 31 31 32 32 32 33 34 35 35
15 16 16 16 16 17 18 18 19 20 20 20 21 22 22 23 24 25 25 26 27 28 29 30 31 31 31 31 32 33 34 34 35 35 35 36 37 37
16 16 17 17 18 19 20 20 21 21 22 22 22 23 23 24 25 26 26 27 28 29 30 31 32 33 33 33 33 34 35 35 36 36 37 37 37 38
17 18 18 19 20 20 21 22 23 23 23 23 24 24 25 26 27 28 28 29 30 31 31 32 33 33 34 34 34 35 36 36 37 38 38 39 39 39
19 20 20 20 21 22 22 23 23 23 24 24 25 26 27 27 28 29 29 30 31 32 33 33 34 35 36 35 36 37 37 37 38 39 40 41 41 42
20 21 21 21 22 22 23 24 24 24 25 26 26 27 27 28 29 30 31 32 32 33 34 34 35 37 38 38 38 38 39 39 40 41 42 42 42 43
21 21 22 23 23 24 25 25 25 26 26 27 28 28 29 30 31 31 32 32 33 35 35 36 36 37 38 38 38 39 40 41 41 42 43 43 44 44
22 22 23 24 24 25 26 26 27 27 28 29 30 30 31 31 32 33 34 35 36 36 37 38 38 39 40 40 40 41 41 42 43 43 43 44 44 44
22 23 24 25 26 27 28 28 29 29 30 30 31 32 33 33 33 35 36 37 38 39 39 40 40 41 41 41 42 42 43 44 44 44 44 45 45 45
24 24 25 26 28 29 29 29 30 31 32 32 33 33 34 35 36 37 37 38 39 40 40 41 41 42 43 43 43 43 44 44 45 45 45 46 46 46
25 25 27 28 29 30 31 32 33 33 34 34 34 35 35 36 37 38 38 39 39 40 40 41 42 42 43 43 43 43 44 45 45 45 46 46 46 46
27 27 28 29 31 32 33 33 34 34 34 35 36 36 37 38 38 38 39 39 40 41 41 42 42 42 42 42 43 43 43 44 44 45 45 45 46 46
28 28 29 30 31 32 33 33 34 35 35 36 36 37 38 38 39 39 40 41 41 41 42 42 43 42 42 42 42 42 43 43 42 42 42 43 43 43
29 30 30 31 32 33 33 34 34 35 35 36 37 37 38 38 39 40 41 42 42 42 42 42 42 41 41 41 41 40 40 40 40 40 40 40 40 40
30 31 31 32 32 33 34 34 35 36 36 36 37 37 38 39 40 40 41 41 41 41 41 40 40 39 39 38 39 39 38 38 38 38 38 38 38 38
31 32 32 32 33 34 34 35 35 36 36 36 37 38 39 39 40 40 41 40 40 39 39 38 38 37 37 37 37 36 37 37 36 36 36 37 37 36
32 32 32 33 33 34 34 35 35 35 36 37 37 38 39 39 40 40 40 39 38 37 36 36 36 36 36 35 35 35 35 35 35 35 35 34 34 33
32 32 32 33 34 34 34 35 35 36 37 37 38 38 39 39 39 39 39 37 36 35 35 35 36 36 35 34 33 33 33 34 34 34 34 33 33 32
31 32 32 33 34 35 35 36 36 37 37 38 38 39 39 39 38 37 37 37 36 35 35 34 34 34 34 33 33 33 33 33 32 32 32 32 31 31

GEFSNE_500_meanwind_210.txt.gz
Wind_Speed
13 14 15 15 15 15 16 16 16 16 17 18 18 18 18 18 20 20 20 21 22 22 22 22 23 24 25 26 26 26 26 26 26 27 27 28 28 28
15 15 15 15 15 16 16 16 17 17 18 19 19 19 19 20 21 21 22 22 22 22 23 24 24 25 26 26 27 27 28 29 29 29 30 31 31 31
15 16 16 17 17 17 17 17 18 19 19 19 20 20 20 21 22 22 22 23 23 24 25 26 26 27 28 29 29 30 30 31 31 32 33 33 33 33
15 16 17 17 18 18 18 19 19 20 20 20 21 21 21 23 23 24 24 24 25 26 27 28 28 29 30 30 31 32 32 32 33 33 34 35 35 35
15 16 17 17 18 18 18 19 20 21 22 21 22 23 23 24 25 25 25 26 26 27 28 29 30 31 32 32 33 33 34 34 35 36 35 36 36 36
15 16 17 18 19 19 20 21 22 23 23 23 24 25 25 26 27 27 27 28 28 28 29 30 31 31 32 33 34 35 35 35 36 37 38 38 38 39
16 17 18 19 19 21 21 22 23 24 25 25 26 27 26 27 28 28 29 30 30 31 32 32 33 33 34 35 36 36 37 37 38 38 39 39 39 39
19 19 20 21 22 22 23 23 24 25 25 25 26 27 27 28 28 30 31 31 32 33 34 34 35 36 37 37 37 37 38 39 40 40 41 41 41 41
20 21 22 22 23 24 24 25 25 25 25 26 27 27 27 28 29 30 31 32 33 35 36 37 38 38 39 39 39 39 40 41 41 42 43 43 43 43
21 22 23 23 24 24 25 26 26 27 27 28 29 29 30 31 31 32 33 34 35 36 37 38 39 40 41 41 41 42 42 43 43 43 44 44 45 45
23 23 24 24 25 25 26 26 27 27 28 29 30 31 32 33 34 34 35 36 37 38 39 39 40 41 42 42 43 44 45 45 44 44 44 45 46 46
24 24 25 26 26 27 27 28 29 30 30 31 32 33 34 35 36 36 37 38 38 39 39 40 41 42 44 44 45 44 44 44 45 46 46 47 47 47
24 25 26 27 28 28 29 29 30 31 32 33 33 34 35 36 36 37 38 38 39 39 40 41 42 44 45 44 44 45 44 44 45 46 46 47 48 48
26 26 27 28 29 29 30 31 32 33 33 34 34 35 36 36 37 38 39 40 40 41 42 43 43 43 44 44 44 44 44 44 44 45 45 45 45 46
28 29 29 29 30 31 32 32 33 33 34 35 35 36 37 37 38 39 40 41 42 42 43 43 43 43 43 43 43 43 43 43 44 43 43 43 44 44
29 29 30 31 31 32 32 32 33 34 35 35 36 36 37 38 38 39 40 41 41 42 43 43 42 42 42 43 43 42 42 42 42 41 41 42 42 42
29 30 30 30 31 31 32 33 34 35 35 36 36 37 37 38 38 39 39 40 40 41 41 42 42 42 41 41 40 40 40 39 39 39 38 39 39 39
30 30 30 31 31 32 33 33 34 35 36 36 37 37 38 38 39 40 40 40 40 40 41 40 40 39 39 39 39 38 38 37 37 37 37 36 36 36
30 31 31 31 32 33 34 35 35 36 37 37 37 38 38 38 39 40 40 40 40 40 39 39 39 38 38 37 37 37 37 36 36 36 35 35 35 34
31 31 31 32 33 34 34 35 36 37 37 37 37 37 38 38 39 39 39 39 39 39 38 38 38 38 37 37 37 36 36 36 35 35 34 34 33 33
31 31 31 32 33 34 35 35 36 37 37 37 37 37 38 38 38 38 38 39 38 38 37 37 38 37 37 37 37 35 35 35 35 34 34 32 31 31
31 32 32 33 34 34 35 36 37 38 38 37 37 37 38 38 38 38 38 38 38 37 37 37 37 37 37 36 36 35 34 33 33 34 33 32 31 30
31 32 32 33 34 36 36 36 37 37 37 37 37 37 37 37 37 37 38 38 38 37 37 37 37 36 36 35 34 34 33 32 32 32 32 31 31 30

GEFSNE_500_meanwind_216.txt.gz
Wind_Speed
12 12 13 14 14 14 15 16 17 17 17 17 17 18 19 19 19 20 20 21 21 21 22 22 22 23 24 24 24 25 25 26 26 27 27 28 29 29
14 14 15 16 16 16 16 17 18 18 18 18 19 19 20 21 22 22 22 22 22 22 23 23 24 25 26 26 27 27 28 29 29 29 30 31 31 32
14 14 15 16 17 17 17 18 19 19 20 20 21 22 22 23 24 24 24 24 24 24 25 26 26 27 28 28 28 29 30 31 31 32 33 33 34 34
14 14 15 16 17 17 18 19 19 20 21 21 21 22 23 24 24 24 25 26 26 27 27 28 29 29 29 30 31 32 32 32 33 34 35 35 35 36
15 15 16 17 18 18 18 19 19 20 21 22 23 23 24 24 25 26 27 28 29 29 30 31 32 32 32 32 32 33 33 34 35 35 36 37 39 39
17 17 18 19 19 19 19 20 21 22 23 25 25 25 26 26 27 27 28 29 29 29 31 32 32 33 33 33 34 35 35 36 36 37 37 38 39 39
18 19 19 20 20 21 22 22 23 24 25 25 26 26 27 27 28 28 29 29 30 31 31 32 33 33 33 34 35 36 37 38 38 39 39 40 40 41
20 21 21 21 22 23 24 24 25 25 26 27 28 28 28 28 28 30 31 32 32 32 32 33 33 35 35 36 37 38 39 40 40 40 41 41 42 42
22 22 23 23 23 24 24 25 26 26 27 28 29 29 29 29 30 31 32 33 33 33 34 35 35 36 37 38 38 39 40 41 42 43 43 43 43 44
23 23 23 24 24 25 25 26 27 28 28 29 29 30 31 31 32 32 33 33 34 35 36 37 37 38 39 39 40 41 42 43 44 45 46 45 45 46
23 23 24 24 25 25 26 27 27 28 29 30 30 31 31 32 32 33 34 35 35 36 36 37 38 39 40 41 41 42 43 43 44 44 45 45 45 45
23 24 25 25 26 26 26 27 28 29 30 30 31 31 32 32 33 33 34 35 36 36 37 38 39 39 40 40 41 42 43 44 44 43 44 44 44 44
24 25 26 26 27 28 28 29 30 30 30 31 31 32 33 33 34 35 36 37 37 38 38 38 39 40 40 41 41 42 42 42 42 42 43 42 43 43
25 26 26 27 28 29 29 30 30 31 31 31 32 32 33 34 35 36 37 37 38 38 38 39 40 40 41 41 41 41 41 41 41 41 41 41 41 41
26 26 27 28 28 29 30 30 31 32 32 32 33 33 34 35 36 36 37 37 38 38 39 40 40 41 41 41 40 40 40 40 39 39 39 39 38 38
26 27 28 28 29 30 30 30 31 31 32 33 33 34 35 35 35 36 37 38 38 38 39 39 39 40 39 39 39 39 39 38 38 38 38 38 38 38
27 28 28 29 30 30 31 31 31 32 33 34 34 35 35 36 37 37 38 37 38 38 38 38 38 38 38 37 37 37 37 37 37 37 37 37 38 38
27 28 28 29 30 30 31 31 32 33 34 34 34 35 36 36 37 37 37 37 38 38 38 37 37 37 36 36 36 36 36 36 36 37 37 37 37 37
28 28 29 30 30 31 32 32 33 34 34 35 35 36 36 37 37 37 37 37 37 37 37 37 36 36 36 35 35 35 36 35 35 36 36 36 35 35
29 29 30 31 31 32 33 33 34 34 35 35 36 36 37 37 37 37 36 36 36 36 36 36 36 35 35 35 35 35 35 35 35 34 34 34 33 33
30 31 31 32 32 33 33 33 34 34 35 36 36 36 36 36 36 36 36 36 36 35 35 35 34 35 34 35 35 35 35 34 34 34 33 32 31 31
31 32 32 32 33 33 33 33 34 35 35 35 35 35 35 35 36 36 35 35 35 35 35 34 34 34 34 34 34 34 34 33 33 32 31 31 30 30
31 32 32 31 32 33 33 33 34 34 34 34 34 34 34 34 35 35 35 35 36 35 35 35 35 35 34 34 34 33 33 32 32 32 30 30 29 29